Change the Weather History Date:

Thursday, October 13, 2011

  Actual Average Record
Temperature  
Mean Temperature 71 °F -  
Max Temperature 82 °F - - ()
Min Temperature 60 °F - - ()
Cooling Degree Days 6    
Growing Degree Days 21 (Base 50)    
Moisture  
Dew Point 62 °F    
Average Humidity 74    
Maximum Humidity 100    
Minimum Humidity 51    
Precipitation  
Precipitation 0.00 in - - ()
Sea Level Pressure  
Sea Level Pressure 29.77 in    
Wind  
Wind Speed 5 mph (SW)    
Max Wind Speed 14 mph    
Max Gust Speed 20 mph    
Visibility 10 miles    
Events Rain    
T = Trace of Precipitation, MM = Missing Value Source: NWS Daily Summary

Daily Weather History Graph

Daily Weather History Graph

Search for Another Location

Airport or City:

Trip Planner

Search our weather history database for the weather conditions in past years. The results will help you decide how hot, cold, wet, or windy it might be!

Date:

Astronomy

Oct. 13, 2011 Rise Set
Actual Time 6:46 AM CDT 6:17 PM CDT
Civil Twilight 6:22 AM CDT 6:41 PM CDT
Nautical Twilight 5:54 AM CDT 7:09 PM CDT
Astronomical Twilight 5:26 AM CDT 7:37 PM CDT
Moon 7:04 PM CDT (10/13) 8:07 AM CDT (10/13)
Length of Visible Light 12h 18m
Length of Day
11h 30m
Full, 98% of the Moon is Illuminated
Oct 13
Full
Oct 19
Last Quarter
Oct 26
New
Nov 2
First Quarter
Nov 10
Full

Hourly Weather History & Observations

Time (CDT) Temp. Heat Index Dew Point Humidity Pressure Visibility Wind Dir Wind Speed Gust Speed Precip Events Conditions
12:55 AM 60.3 °F - 59.4 °F 97% 29.82 in 10.0 mi Calm Calm - N/A   Clear
1:55 AM 60.4 °F - 59.4 °F 96% 29.81 in 10.0 mi South 4.6 mph - N/A   Clear
2:55 AM 61.5 °F - 60.6 °F 97% 29.81 in 10.0 mi South 3.5 mph - N/A   Clear
3:55 AM 62.8 °F - 61.7 °F 96% 29.79 in 10.0 mi SSE 4.6 mph - N/A   Mostly Cloudy
4:10 AM 62.6 °F - 62.6 °F 100% 29.79 in 10.0 mi South 3.5 mph - N/A Rain Light Rain
4:27 AM 64.4 °F - 62.6 °F 94% 29.78 in 10.0 mi South 4.6 mph - N/A   Partly Cloudy
4:55 AM 63.3 °F - 62.2 °F 96% 29.78 in 10.0 mi South 4.6 mph - 0.00 in   Partly Cloudy
5:55 AM 61.7 °F - 60.6 °F 96% 29.78 in 10.0 mi SSW 3.5 mph - N/A   Clear
6:55 AM 61.3 °F - 60.3 °F 96% 29.79 in 10.0 mi SSW 4.6 mph - N/A   Clear
7:55 AM 66.9 °F - 64.9 °F 93% 29.81 in 10.0 mi South 3.5 mph - N/A   Partly Cloudy
8:55 AM 72.7 °F - 66.4 °F 81% 29.80 in 10.0 mi WSW 8.1 mph - N/A   Partly Cloudy
9:55 AM 77.0 °F - 65.8 °F 68% 29.80 in 10.0 mi WSW 8.1 mph - N/A   Partly Cloudy
10:55 AM 78.1 °F - 66.2 °F 67% 29.79 in 10.0 mi WSW 10.4 mph - N/A   Mostly Cloudy
11:55 AM 78.3 °F - 67.1 °F 68% 29.78 in 10.0 mi West 8.1 mph - N/A   Scattered Clouds
12:55 PM 81.1 °F 82.9 °F 65.3 °F 58% 29.74 in 10.0 mi West 8.1 mph - N/A   Scattered Clouds
1:55 PM 78.3 °F - 65.7 °F 65% 29.72 in 10.0 mi West 9.2 mph - N/A   Scattered Clouds
2:55 PM 82.9 °F 85.2 °F 66.4 °F 57% 29.70 in 10.0 mi South 13.8 mph - N/A   Scattered Clouds
3:20 PM 80.6 °F 82.3 °F 64.4 °F 58% 29.68 in 10.0 mi SW 11.5 mph 19.6 mph N/A   Light Drizzle
3:28 PM 80.6 °F 82.3 °F 64.4 °F 58% 29.69 in 10.0 mi SW 10.4 mph 19.6 mph N/A   Partly Cloudy
3:35 PM 80.6 °F 82.3 °F 64.4 °F 58% 29.68 in 10.0 mi SW 11.5 mph - N/A   Scattered Clouds
3:55 PM 80.4 °F 82.4 °F 65.7 °F 61% 29.69 in 10.0 mi WSW 5.8 mph - 0.00 in   Scattered Clouds
4:55 PM 78.6 °F - 63.1 °F 59% 29.70 in 10.0 mi West 5.8 mph - N/A   Mostly Cloudy
5:55 PM 77.7 °F - 63.3 °F 61% 29.71 in 10.0 mi WSW 5.8 mph - N/A   Scattered Clouds
6:55 PM 74.7 °F - 55.4 °F 51% 29.73 in 10.0 mi WSW 3.5 mph - N/A   Partly Cloudy
7:55 PM 72.1 °F - 53.6 °F 52% 29.76 in 10.0 mi West 5.8 mph - N/A   Clear
8:55 PM 68.5 °F - 52.5 °F 57% 29.79 in 10.0 mi West 4.6 mph - N/A   Clear
9:55 PM 67.1 °F - 54.3 °F 63% 29.82 in 10.0 mi WNW 4.6 mph - N/A   Clear
10:55 PM 63.0 °F - 54.5 °F 74% 29.83 in 10.0 mi NW 3.5 mph - N/A   Clear
11:55 PM 63.7 °F - 56.1 °F 76% 29.85 in 10.0 mi NW 5.8 mph - N/A   Clear